Carbondale, IL

1:30 PM CST on November 14, 2019 (GMT -0600)
Southern Illinois

Weather History for KMDH - August, 2019

Change the Weather History Date:

Sunday, August 4, 2019

  Actual Average Record
Temperature  
Mean Temperature 78 °F -  
Max Temperature 88 °F 87 °F 106 °F (1918)
Min Temperature 66 °F 64 °F 33 °F (1996)
Cooling Degree Days 14    
Growing Degree Days 28 (Base 50)    
Moisture  
Dew Point 67 °F    
Average Humidity 74    
Maximum Humidity 97    
Minimum Humidity 48    
Precipitation  
Precipitation 0.00 in - - ()
Sea Level Pressure  
Sea Level Pressure 30.00 in    
Wind  
Wind Speed 2 mph (NNE)    
Max Wind Speed 8 mph    
Max Gust Speed -    
Visibility 9 miles    
Events      
Averages and records for this station are not official NWS values.
T = Trace of Precipitation, MM = Missing Value Source: NWS Daily Summary

Daily Weather History Graph

Daily Weather History Graph

Search for Another Location

Airport or City:

Astronomy

Aug. 04, 2019 Rise Set
Actual Time 6:02 AM CDT 8:02 PM CDT
Civil Twilight 5:34 AM CDT 8:31 PM CDT
Nautical Twilight 4:58 AM CDT 9:06 PM CDT
Astronomical Twilight 4:20 AM CDT 9:44 PM CDT
Moon 10:04 AM CDT (8/4) 10:46 PM CDT (8/4)
Length of Visible Light 14h 57m
Length of Day
13h 59m
Waxing Crescent, 18% of the Moon is Illuminated
Aug 4
Waxing Crescent
Aug 7
First Quarter
Aug 15
Full
Aug 23
Last Quarter
Aug 30
New

Hourly Weather History & Observations

Time (CDT) Temp. Heat Index Dew Point Humidity Pressure Visibility Wind Dir Wind Speed Gust Speed Precip Events Conditions
12:52 AM 71.1 °F - 69.1 °F 93% 30.01 in 9.0 mi Calm Calm - N/A   Partly Cloudy
1:52 AM 70.0 °F - 69.1 °F 97% 30.01 in 6.0 mi Calm Calm - N/A   Clear
2:52 AM 69.1 °F - 68.0 °F 96% 30.00 in 6.0 mi Calm Calm - N/A   Clear
3:52 AM 69.1 °F - 68.0 °F 96% 29.99 in 5.0 mi Calm Calm - N/A   Clear
4:52 AM 69.1 °F - 66.9 °F 93% 30.00 in 7.0 mi North 4.6 mph - N/A   Mostly Cloudy
5:52 AM 69.1 °F - 66.9 °F 93% 30.00 in 8.0 mi Calm Calm - N/A   Partly Cloudy
6:52 AM 69.1 °F - 68.0 °F 96% 30.01 in 5.0 mi Calm Calm - N/A   Clear
7:52 AM 72.0 °F - 69.1 °F 91% 30.02 in 9.0 mi Calm Calm - N/A   Partly Cloudy
8:52 AM 75.9 °F - 68.0 °F 76% 30.04 in 10.0 mi NNE 6.9 mph - N/A   Mostly Cloudy
9:52 AM 80.1 °F 82.7 °F 68.0 °F 67% 30.04 in 10.0 mi NNE 6.9 mph - N/A   Overcast
10:52 AM 82.9 °F 85.8 °F 68.0 °F 60% 30.04 in 10.0 mi Variable 3.5 mph - N/A   Clear
11:52 AM 84.9 °F 87.6 °F 66.9 °F 55% 30.03 in 10.0 mi NNE 6.9 mph - N/A   Clear
12:52 PM 86.0 °F 87.3 °F 64.0 °F 48% 30.01 in 10.0 mi NE 6.9 mph - N/A   Clear
1:52 PM 88.0 °F 90.3 °F 66.0 °F 48% 29.99 in 10.0 mi North 8.1 mph - N/A   Clear
2:52 PM 88.0 °F 90.3 °F 66.0 °F 48% 29.98 in 10.0 mi NNE 5.8 mph - N/A   Clear
3:52 PM 88.0 °F 90.3 °F 66.0 °F 48% 29.96 in 10.0 mi North 8.1 mph - N/A   Clear
4:52 PM 87.1 °F 89.9 °F 66.9 °F 51% 29.96 in 10.0 mi NNE 4.6 mph - N/A   Partly Cloudy
5:52 PM 87.1 °F 89.2 °F 66.0 °F 49% 29.96 in 10.0 mi NE 5.8 mph - N/A   Clear
6:52 PM 84.9 °F 87.6 °F 66.9 °F 55% 29.96 in 10.0 mi NNE 4.6 mph - N/A   Clear
7:52 PM 79.0 °F - 69.1 °F 72% 29.96 in 10.0 mi NNE 3.5 mph - N/A   Clear
8:52 PM 73.9 °F - 66.0 °F 76% 29.97 in 10.0 mi NNW 3.5 mph - N/A   Clear
9:52 PM 71.1 °F - 66.9 °F 87% 29.99 in 10.0 mi Calm Calm - N/A   Clear
10:52 PM 69.1 °F - 66.0 °F 90% 30.00 in 10.0 mi Calm Calm - N/A   Clear
11:52 PM 66.9 °F - 64.9 °F 93% 30.00 in 10.0 mi Calm Calm - N/A   Clear